Regional Weather Roundup
Issued by NWS

Home | Current Version | Previous Version | Graphics & Text | Print | Product List | Glossary On
Versions: 1 2 3 4 5 6 7 8 9 10 11 12 13 14 15 16 17 18 19 20 21 22 23 24 25 26 27 28 29 30 31 32 33 34 35 36 37 38 39 40 41 42 43 44 45 46 47 48 49 50
508
ASUS45 KABQ 191910
RWRNM
NEW MEXICO REGIONAL WEATHER ROUNDUP
NATIONAL WEATHER SERVICE ALBUQUERQUE NM
1200 PM MST THU JAN 19 2017

NOTE: "FAIR" MEANS FEW OR NO CLOUDS BELOW 12,000 FEET AGL WITH NO
       SIGNIFICANT WEATHER OR OBSTRUCTIONS TO VISION.

      THIS PRODUCT IS RELEASED AS TWO VERSIONS.  ONE VERSION NEAR
      THE TOP OF THE HOUR CONTAINING PRELIMINARY DATA FROM ALBUQUERQUE
      AND OTHER STATIONS.  A FINAL VERSION WITH ADDITIONAL DATA IS
      ISSUED ABOUT 10 MINUTES AFTER THE HOUR.

NMZ501-503-504-510>518-192000-
NORTHWEST PLATEAU/NORTHCENTRAL MOUNTAINS

CITY           SKY/WX    TMP DP  RH WIND       PRES   REMARKS
FARMINGTON     CLOUDY    40  30  67 E7        29.86F
LOS ALAMOS     FAIR      35  26  71 SE3       29.87F
SANTA FE       FAIR      41  26  55 N10       29.85F
TAOS           FAIR      34  19  55 W6        29.86F WCI  29
ANGEL FIRE     FAIR      32  19  58 NE5       29.81F WCI  28

$$
NMZ402-403-502-505>509-192000-
WESTCENTRAL MOUNTAINS/SOUTHWEST MOUNTAINS

CITY           SKY/WX    TMP DP  RH WIND       PRES   REMARKS
GALLUP         CLOUDY    37  29  72 SW16      29.91F WCI  28
GRANTS         FAIR      41  24  51 N3        29.90F
SILVER CITY    FAIR      45  33  61 W13       29.97F

$$
NMZ407-409-411-412-192000-
SOUTHERN DESERTS

CITY           SKY/WX    TMP DP  RH WIND       PRES   REMARKS
DEMING         FAIR      49  37  63 W16       29.97F
LAS CRUCES     FAIR      49  33  54 W23G32    29.94F
HOLLOMAN AFB   FAIR      53  33  46 VRB6      29.93F
ALAMOGORDO     FAIR      50  30  46 CALM      29.92F
T OR C         FAIR      50  27  40 SW7       29.89F

$$
NMZ519>523-192000-
CENTRAL VALLEYS/CENTRAL HIGHLANDS

CITY           SKY/WX    TMP DP  RH WIND       PRES   REMARKS
ALBUQUERQUE    PTSUNNY   44  29  55 VRB3      29.89F
DOUBLE EAGLE   PTSUNNY   43  28  56 CALM      29.90F
MORIARTY ARPT  FAIR      44  26  49 NW23      29.84F
CLINES CORNERS FAIR      38  26  62 NW40G51   29.74F WCI  24
BELEN          FAIR      46  27  47 NW6       29.88F
SOCORRO        FAIR      48  28  45 CALM      29.89F

$$
NMZ524>526-539-540-192000-
SOUTHCENTRAL MOUNTAINS

CITY           SKY/WX    TMP DP  RH WIND       PRES   REMARKS
RUIDOSO        FAIR      45  16  31 W17G25    29.83F

$$
NMZ527>531-192000-
NORTHEAST HIGHLANDS/NORTHEAST PLAINS

CITY           SKY/WX    TMP DP  RH WIND       PRES   REMARKS
LAS VEGAS      FAIR      45  17  32 E3        29.68F
RATON          FAIR      43  25  49 SW6       29.64F
CLAYTON        FAIR      58  14  17 NW22G29   29.57F

$$
NMZ532>537-192000-
EASTCENTRAL PLAINS

CITY           SKY/WX    TMP DP  RH WIND       PRES   REMARKS
TUCUMCARI      FAIR      61  22  22 W15       29.60F
CANNON AFB     FAIR      56  28  34 W24       29.63F
CLOVIS AIRPORT FAIR      59  30  33 W22       29.62F

$$
NMZ028-029-538-192000-
SOUTHEAST PLAINS

CITY           SKY/WX    TMP DP  RH WIND       PRES   REMARKS
ROSWELL        FAIR      62  22  21 W24G33    29.72F
ARTESIA        FAIR      61  32  33 SW26      29.74F
CARLSBAD       FAIR      62  27  26 W28G43    29.75F
HOBBS          SUNNY     59  30  33 SW25      29.74F


$$




USA.gov is the U.S. government's official web portal to all federal, state and local government web resources and services.